Location: Unspecified
(51.4030°N, 0.0000°E)
Time: 06:41:39
(UTC+00:00)

DEIMOS 2 - Visible Passes

Search period start: 05 April 2026 00:00
Search period end: 15 April 2026 00:00
Orbit: 587 x 588 km, 97.6° (Epoch: 29 March)

Date Brightness Start Highest point End Pass type
(mag) Time Alt. Az. Time Alt. Az. Time Alt. Az.
5 Apr ? 20:28:31 10° NE 20:29:39 13° ENE 20:29:39 13° ENE visible
5 Apr ? 22:02:48 10° N 22:06:08 52° NNW 22:06:08 52° NNW visible
5 Apr ? 23:40:54 10° NW 23:41:38 10° NW 23:42:22 10° WNW visible
6 Apr ? 20:35:18 10° NE 20:36:56 16° ENE 20:36:56 16° ENE visible
6 Apr ? 22:09:55 10° N 22:13:25 51° NW 22:13:25 51° NW visible
7 Apr ? 20:42:09 10° NE 20:44:12 19° ENE 20:44:12 19° ENE visible
7 Apr ? 22:17:02 10° N 22:20:42 47° NW 22:20:42 47° NW visible
8 Apr ? 20:49:03 10° NE 20:51:30 22° ENE 20:51:30 22° ENE visible
8 Apr ? 22:24:10 10° N 22:27:59 41° WNW 22:27:59 41° WNW visible
9 Apr ? 20:55:59 10° NE 20:58:46 26° ENE 20:58:46 26° ENE visible
9 Apr ? 22:31:19 10° N 22:35:08 36° WNW 22:35:15 36° WNW visible
10 Apr ? 21:02:55 10° NNE 21:06:02 30° ENE 21:06:02 30° ENE visible
10 Apr ? 22:38:28 10° N 22:42:09 31° WNW 22:42:31 30° WNW visible
11 Apr ? 21:09:54 10° NNE 21:13:19 36° E 21:13:19 36° E visible
11 Apr ? 22:45:38 10° N 22:49:10 27° WNW 22:49:47 26° W visible
12 Apr ? 21:16:53 10° NNE 21:20:34 43° E 21:20:34 43° E visible
12 Apr ? 22:52:48 10° N 22:56:09 24° WNW 22:57:02 22° W visible
13 Apr ? 21:23:53 10° NNE 21:27:49 51° E 21:27:49 51° E visible
13 Apr ? 23:00:01 10° NNW 23:03:09 21° WNW 23:04:18 19° W visible
14 Apr ? 21:30:54 10° NNE 21:35:03 61° ESE 21:35:04 61° ESE visible
14 Apr ? 23:07:14 10° NNW 23:10:07 18° WNW 23:11:33 16° W visible
